Weather in Kayyerkan

Russia / Krasnoyarsk Krai     69°21′05″N   87°46′01″E
temp.,
°C
wind,
m/s
gust,
m/s
humid.,
%
clouds,
%
prec.,
mm/h
press.,
hPa
HPBL,
m
23 october, sat
sat2301:00−9e3395100 0.0 99735
04:00−6ene3896100 0.6 993187
07:00−6e41096100 2.5 991246
10:00−4se3696100 2.6 988248
13:00−1sse3798100 5.0 988379
16:00−1sw41097100 1.3 989543
19:00−7sw479579 2.0 992283
22:00−8sse349590 0.1 99364
24 october, sun
sun2401:00−8se3393100 0.2 99358
04:00−8ese339383 0.0 99227
07:00−7ese369283 0.0 991112
10:00−7e3692100 0.0 990115
13:00−6e369197 0.0 989139
16:00−6e3487100 0.0 98978
19:00−6e3388100 0.0 99043
22:00−5e3394100 0.1 99068
25 october, mon
mon2501:00−5e2395100 0.2 99092
04:00−5e2396100 0.3 99084
07:00−4sse4795100 0.8 992282
10:00−5s51094100 0.4 993466
13:00−5sse5109197 0.6 994527
16:00−6sse4994100 0.2 995475
19:00−7s5109399 0.5 996494
22:00−8ssw61194100 0.4 998488
26 october, tue
tue2601:00−9ssw3795100 0.9 1000354
04:00−12ssw489691 0.4 1003234
07:00−13ssw489594 0.7 1005194
10:00−12s469599 0.3 1007114
13:00−11s469591 0.4 1008124
16:00−11s359591 0.3 100973
19:00−14sse329564 0.3 100914
22:00−14ese2295100 0.0 100812
27 october, wed
wed2701:00−13e3294100 0.0 100625
04:00−12e3393100 0.0 100241
07:00−14ene2294100 0.0 99920
10:00−14ene2292100 0.0 99520
13:00−12ne2288100 0.0 99235
16:00−13nw2298100 0.0 99232
19:00−14nnw4797100 0.1 993377
22:00−13nnw5896100 0.3 994443